| time (UTC) | temp F | wind direction | speed MPH | gust MPH | rain 1hr in | rain 24hr in | rain mn in | humidity % | barometer mb |
| 20260506210735 | 61 | 50 | 0.0 | 1.0 | 0.00 | 0.02 | 0.02 | 81 | 1007.9 |
| 20260506205733 | 61 | 299 | 0.0 | 1.0 | 0.00 | 0.02 | 0.02 | 80 | 1007.8 |
| 20260506204733 | 61 | 3 | 0.0 | 1.0 | 0.00 | 0.02 | 0.02 | 80 | 1007.8 |
| 20260506204215 | 62 | 89 | 0.0 | 1.0 | 0.00 | 0.02 | 0.02 | 79 | 1008.0 |
| 20260506202734 | 62 | 315 | 0.0 | 2.0 | 0.00 | 0.02 | 0.02 | 78 | 1007.8 |
| 20260506201726 | 62 | 119 | 0.0 | 3.0 | 0.00 | 0.02 | 0.02 | 78 | 1007.8 |
| 20260506200746 | 62 | 269 | 0.0 | 2.0 | 0.00 | 0.02 | 0.02 | 77 | 1007.7 |
| 20260506195732 | 62 | 263 | 0.0 | 2.0 | 0.00 | 0.02 | 0.02 | 76 | 1007.7 |
| 20260506194732 | 63 | 112 | 0.0 | 1.0 | 0.00 | 0.02 | 0.02 | 75 | 1007.9 |
| 20260506193735 | 63 | 24 | 0.0 | 2.0 | 0.00 | 0.02 | 0.02 | 75 | 1007.8 |
| 20260506192732 | 64 | 244 | 1.0 | 2.0 | 0.00 | 0.02 | 0.02 | 73 | 1007.8 |
| 20260506191732 | 65 | 283 | 2.0 | 2.0 | 0.00 | 0.02 | 0.02 | 71 | 1007.9 |
| 20260506190733 | 65 | 283 | 2.0 | 4.0 | 0.00 | 0.02 | 0.02 | 71 | 1007.8 |
| 20260506185732 | 66 | 262 | 3.0 | 4.0 | 0.00 | 0.02 | 0.02 | 69 | 1008.0 |
| 20260506184732 | 67 | 274 | 0.0 | 4.0 | 0.00 | 0.02 | 0.02 | 67 | 1007.8 |
| 20260506183734 | 68 | 274 | 3.0 | 6.0 | 0.00 | 0.02 | 0.02 | 64 | 1007.6 |
| 20260506182733 | 69 | 272 | 3.0 | 8.0 | 0.00 | 0.02 | 0.02 | 62 | 1007.6 |
| 20260506181733 | 69 | 304 | 0.0 | 2.0 | 0.00 | 0.02 | 0.02 | 60 | 1006.9 |
| 20260506181711 | 69 | 252 | 0.0 | 3.0 | 0.00 | 0.02 | 0.02 | 58 | 1007.0 |
| 20260506180212 | 70 | 45 | 1.0 | 3.0 | 0.00 | 0.02 | 0.02 | 56 | 1006.7 |
| 20260506175217 | 69 | 311 | 0.0 | 3.0 | 0.00 | 0.02 | 0.02 | 58 | 1006.8 |
| 20260506173733 | 69 | 297 | 0.0 | 2.0 | 0.00 | 0.02 | 0.02 | 60 | 1006.8 |
| 20260506172732 | 69 | 58 | 0.0 | 2.0 | 0.00 | 0.02 | 0.02 | 61 | 1006.6 |
| 20260506171732 | 69 | 92 | 1.0 | 2.0 | 0.02 | 0.02 | 0.02 | 66 | 1006.6 |
| 20260506171216 | 69 | 304 | 0.0 | 2.0 | 0.02 | 0.02 | 0.02 | 66 | 1006.9 |
| 20260506165732 | 69 | 300 | 0.0 | 2.0 | 0.02 | 0.00 | 0.02 | 65 | 1006.9 |
| 20260506164732 | 69 | 111 | 0.0 | 3.0 | 0.02 | 0.00 | 0.02 | 65 | 1006.9 |
| 20260506163733 | 69 | 306 | 1.0 | 4.0 | 0.02 | 0.00 | 0.02 | 65 | 1007.2 |
| 20260506163237 | 69 | 287 | 2.0 | 13.0 | 0.01 | 0.00 | 0.01 | 61 | 1007.1 |
| 20260506161732 | 72 | 275 | 10.0 | 11.0 | 0.00 | 0.00 | 0.00 | 56 | 1007.1 |
| 20260506160733 | 73 | 218 | 0.0 | 7.0 | 0.00 | 0.00 | 0.00 | 51 | 1007.1 |
| 20260506160206 | 73 | 95 | 4.0 | 4.0 | 0.00 | 0.00 | 0.00 | 50 | 1007.0 |
| 20260506154733 | 74 | 111 | 1.0 | 6.0 | 0.00 | 0.00 | 0.00 | 48 | 1006.9 |
| 20260506153733 | 75 | 96 | 2.0 | 6.0 | 0.00 | 0.00 | 0.00 | 45 | 1007.2 |
| 20260506152732 | 77 | 311 | 0.0 | 6.0 | 0.00 | 0.00 | 0.00 | 43 | 1007.1 |
| 20260506151733 | 77 | 85 | 2.0 | 6.0 | 0.00 | 0.00 | 0.00 | 42 | 1006.9 |
| 20260506150734 | 76 | 104 | 3.0 | 9.0 | 0.00 | 0.00 | 0.00 | 41 | 1007.2 |
| 20260506145732 | 75 | 327 | 2.0 | 9.0 | 0.00 | 0.00 | 0.00 | 43 | 1007.2 |
| 20260506145220 | 77 | 351 | 1.0 | 7.0 | 0.00 | 0.00 | 0.00 | 41 | 1007.3 |
| 20260506144211 | 77 | 66 | 2.0 | 8.0 | 0.00 | 0.00 | 0.00 | 40 | 1007.2 |
| 20260506142733 | 79 | 287 | 2.0 | 9.0 | 0.00 | 0.00 | 0.00 | 41 | 1007.3 |
| 20260506142214 | 80 | 356 | 3.0 | 7.0 | 0.00 | 0.00 | 0.00 | 38 | 1007.2 |
| 20260506140734 | 81 | 306 | 2.0 | 9.0 | 0.00 | 0.00 | 0.00 | 35 | 1007.1 |
| 20260506135732 | 80 | 277 | 2.0 | 6.0 | 0.00 | 0.00 | 0.00 | 35 | 1007.1 |
| 20260506134738 | 83 | 239 | 2.0 | 5.0 | 0.00 | 0.00 | 0.00 | 34 | 1006.9 |
| 20260506134216 | 79 | 287 | 2.0 | 6.0 | 0.00 | 0.00 | 0.00 | 36 | 1007.0 |
| 20260506132745 | 78 | 276 | 3.0 | 7.0 | 0.00 | 0.00 | 0.00 | 37 | 1007.1 |
| 20260506131732 | 80 | 301 | 3.0 | 9.0 | 0.00 | 0.00 | 0.00 | 36 | 1007.1 |
| 20260506130734 | 80 | 272 | 4.0 | 10.0 | 0.00 | 0.00 | 0.00 | 36 | 1006.9 |
| 20260506130206 | 80 | 46 | 2.0 | 9.0 | 0.00 | 0.00 | 0.00 | 36 | 1007.1 |
| 20260506124736 | 81 | 273 | 5.0 | 8.0 | 0.00 | 0.00 | 0.00 | 36 | 1007.3 |
| 20260506123737 | 81 | 287 | 4.0 | 9.0 | 0.00 | 0.00 | 0.00 | 36 | 1007.2 |
| 20260506123220 | 80 | 293 | 1.0 | 11.0 | 0.00 | 0.00 | 0.00 | 38 | 1007.3 |
| 20260506122209 | 79 | 281 | 6.0 | 12.0 | 0.00 | 0.00 | 0.00 | 38 | 1007.2 |
| 20260506120734 | 80 | 282 | 2.0 | 8.0 | 0.00 | 0.00 | 0.00 | 38 | 1007.0 |
| 20260506115732 | 79 | 256 | 1.0 | 14.0 | 0.00 | 0.00 | 0.00 | 39 | 1007.3 |
| 20260506115654 | 78 | 305 | 2.0 | 10.0 | 0.00 | 0.00 | 0.00 | 39 | 1007.4 |
| 20260506114220 | 79 | 280 | 4.0 | 10.0 | 0.00 | 0.00 | 0.00 | 38 | 1007.4 |
| 20260506112732 | 79 | 303 | 2.0 | 11.0 | 0.00 | 0.00 | 0.00 | 39 | 1007.3 |
| 20260506111732 | 79 | 280 | 2.0 | 11.0 | 0.00 | 0.00 | 0.00 | 38 | 1007.4 |
| 20260506110733 | 78 | 290 | 3.0 | 9.0 | 0.00 | 0.00 | 0.00 | 39 | 1007.3 |
| 20260506105732 | 81 | 128 | 2.0 | 8.0 | 0.00 | 0.00 | 0.00 | 38 | 1007.4 |
| 20260506105133 | 78 | 304 | 0.0 | 8.0 | 0.00 | 0.00 | 0.00 | 37 | 1007.0 |
| 20260506104916 | 79 | 253 | 2.0 | 8.0 | 0.00 | 0.00 | 0.00 | 39 | 1007.2 |
| 20260506102732 | 79 | 285 | 4.0 | 11.0 | 0.00 | 0.00 | 0.00 | 37 | 1007.2 |
| 20260506101732 | 78 | 302 | 1.0 | 9.0 | 0.00 | 0.00 | 0.00 | 36 | 1007.3 |
| 20260506100734 | 76 | 287 | 4.0 | 11.0 | 0.00 | 0.00 | 0.00 | 37 | 1007.2 |
| 20260506100212 | 78 | 281 | 9.0 | 9.0 | 0.00 | 0.00 | 0.00 | 36 | 1007.2 |
| 20260506095215 | 76 | 276 | 2.0 | 10.0 | 0.00 | 0.00 | 0.00 | 38 | 1007.1 |
| 20260506093734 | 78 | 326 | 2.0 | 8.0 | 0.00 | 0.00 | 0.00 | 38 | 1006.8 |
| 20260506092732 | 77 | 286 | 7.0 | 11.0 | 0.00 | 0.00 | 0.00 | 38 | 1007.2 |
| 20260506091733 | 76 | 260 | 2.0 | 13.0 | 0.00 | 0.00 | 0.00 | 37 | 1007.2 |
| 20260506090734 | 76 | 276 | 6.0 | 7.0 | 0.00 | 0.00 | 0.00 | 37 | 1007.1 |
| 20260506085733 | 74 | 149 | 2.0 | 9.0 | 0.00 | 0.00 | 0.00 | 38 | 1007.1 |
| 20260506084733 | 74 | 81 | 2.0 | 10.0 | 0.00 | 0.00 | 0.00 | 39 | 1007.0 |
| 20260506083733 | 74 | 320 | 3.0 | 9.0 | 0.00 | 0.00 | 0.00 | 40 | 1007.0 |
| 20260506082733 | 73 | 276 | 4.0 | 10.0 | 0.00 | 0.00 | 0.00 | 40 | 1007.1 |
| 20260506081732 | 73 | 89 | 2.0 | 8.0 | 0.00 | 0.00 | 0.00 | 41 | 1006.9 |
| 20260506081221 | 72 | 292 | 2.0 | 8.0 | 0.00 | 0.00 | 0.00 | 42 | 1007.0 |
| 20260506072732 | 71 | 327 | 1.0 | 10.0 | 0.00 | 0.00 | 0.00 | 43 | 1006.8 |
| 20260506071733 | 71 | 340 | 2.0 | 9.0 | 0.00 | 0.00 | 0.00 | 43 | 1007.0 |
| 20260506071213 | 71 | 312 | 2.0 | 11.0 | 0.00 | 0.00 | 0.00 | 44 | 1006.9 |
| 20260506061733 | 67 | 292 | 5.0 | 10.0 | 0.00 | 0.00 | 0.00 | 49 | 1006.7 |
| 20260506060734 | 67 | 265 | 3.0 | 6.0 | 0.00 | 0.00 | 0.00 | 50 | 1006.4 |
| 20260506050747 | 60 | 88 | 1.0 | 4.0 | 0.00 | 0.00 | 0.00 | 56 | 1006.6 |
| 20260506044732 | 60 | 91 | 3.0 | 4.0 | 0.00 | 0.00 | 0.00 | 54 | 1006.7 |
| 20260506043733 | 60 | 217 | 0.0 | 4.0 | 0.00 | 0.00 | 0.00 | 53 | 1006.9 |
| 20260506042732 | 60 | 82 | 2.0 | 4.0 | 0.00 | 0.00 | 0.00 | 52 | 1006.9 |
| 20260506041732 | 60 | 125 | 2.0 | 4.0 | 0.00 | 0.00 | 0.00 | 51 | 1006.8 |
| 20260506041214 | 60 | 89 | 2.0 | 3.0 | 0.00 | 0.00 | 0.00 | 51 | 1007.1 |
| 20260506035732 | 60 | 125 | 2.0 | 5.0 | 0.00 | 0.00 | 0.00 | 51 | 1006.8 |
| 20260506034732 | 60 | 39 | 3.0 | 5.0 | 0.00 | 0.00 | 0.00 | 51 | 1007.0 |
| 20260506033734 | 60 | 81 | 1.0 | 4.0 | 0.00 | 0.00 | 0.00 | 50 | 1006.9 |
| 20260506032732 | 59 | 95 | 1.0 | 5.0 | 0.00 | 0.00 | 0.00 | 51 | 1007.0 |
| 20260506031732 | 59 | 51 | 2.0 | 4.0 | 0.00 | 0.00 | 0.00 | 51 | 1007.0 |
| 20260506030734 | 59 | 332 | 3.0 | 4.0 | 0.00 | 0.00 | 0.00 | 51 | 1007.0 |
| 20260506025733 | 59 | 37 | 1.0 | 4.0 | 0.00 | 0.00 | 0.00 | 50 | 1007.2 |
| 20260506024732 | 59 | 149 | 2.0 | 4.0 | 0.00 | 0.00 | 0.00 | 50 | 1006.9 |
| 20260506024217 | 59 | 64 | 0.0 | 4.0 | 0.00 | 0.00 | 0.00 | 50 | 1007.0 |
| 20260506022732 | 59 | 27 | 3.0 | 5.0 | 0.00 | 0.00 | 0.00 | 49 | 1007.3 |
| 20260506021732 | 59 | 91 | 2.0 | 4.0 | 0.00 | 0.00 | 0.00 | 50 | 1007.1 |
| 20260506020733 | 59 | 177 | 2.0 | 4.0 | 0.00 | 0.00 | 0.00 | 50 | 1007.1 |
| 20260506015732 | 59 | 332 | 1.0 | 4.0 | 0.00 | 0.00 | 0.00 | 51 | 1007.2 |
| 20260506015236 | 59 | 91 | 0.0 | 4.0 | 0.00 | 0.00 | 0.00 | 50 | 1007.3 |
| 20260506013733 | 59 | 74 | 1.0 | 6.0 | 0.00 | 0.00 | 0.00 | 50 | 1007.3 |
| 20260506012732 | 58 | 347 | 2.0 | 4.0 | 0.00 | 0.00 | 0.00 | 53 | 1007.4 |
| 20260506012643 | 57 | 272 | 0.0 | 3.0 | 0.00 | 0.00 | 0.00 | 57 | 1007.2 |
| 20260506010734 | 57 | 107 | 0.0 | 2.0 | 0.00 | 0.00 | 0.00 | 57 | 1007.3 |
| 20260506005732 | 57 | 129 | 0.0 | 1.0 | 0.00 | 0.00 | 0.00 | 59 | 1007.4 |
| 20260506005214 | 57 | 124 | 0.0 | 2.0 | 0.00 | 0.00 | 0.00 | 58 | 1007.4 |
| 20260506003733 | 58 | 103 | 0.0 | 0.0 | 0.00 | 0.00 | 0.00 | 58 | 1007.4 |
| 20260506002733 | 58 | 124 | 0.0 | 0.0 | 0.00 | 0.00 | 0.00 | 58 | 1007.3 |
| 20260506001732 | 58 | 304 | 0.0 | 0.0 | 0.00 | 0.00 | 0.00 | 57 | 1007.4 |
| 20260506000733 | 58 | 62 | 0.0 | 0.0 | 0.00 | 0.00 | 0.00 | 56 | 1007.3 |
| 20260505235732 | 59 | 62 | 0.0 | 0.0 | 0.00 | 0.00 | 0.00 | 54 | 1007.4 |
| 20260505234732 | 60 | 315 | 0.0 | 0.0 | 0.00 | 0.00 | 0.00 | 52 | 1007.4 |
| 20260505233733 | 60 | 62 | 0.0 | 0.0 | 0.00 | 0.00 | 0.00 | 50 | 1007.5 |
| 20260505232733 | 60 | 129 | 0.0 | 0.0 | 0.00 | 0.00 | 0.00 | 49 | 1007.6 |
| 20260505231732 | 61 | 293 | 0.0 | 0.0 | 0.00 | 0.00 | 0.00 | 50 | 1007.4 |
| 20260505230746 | 62 | 230 | 0.0 | 0.0 | 0.00 | 0.00 | 0.00 | 48 | 1007.6 |
| 20260505230206 | 62 | 309 | 0.0 | 1.0 | 0.00 | 0.00 | 0.00 | 46 | 1007.7 |
| 20260505224732 | 63 | 22 | 0.0 | 2.0 | 0.00 | 0.00 | 0.00 | 46 | 1007.7 |
| 20260505224645 | 64 | 50 | 0.0 | 4.0 | 0.00 | 0.00 | 0.00 | 44 | 1007.9 |
| 20260505222732 | 64 | 94 | 0.0 | 3.0 | 0.00 | 0.00 | 0.00 | 44 | 1007.8 |
| 20260505221732 | 64 | 44 | 0.0 | 2.0 | 0.00 | 0.00 | 0.00 | 44 | 1007.8 |
| 20260505220734 | 65 | 311 | 0.0 | 2.0 | 0.00 | 0.00 | 0.00 | 43 | 1007.8 |
| 20260505215733 | 65 | 44 | 0.0 | 4.0 | 0.00 | 0.00 | 0.00 | 43 | 1008.0 |
| 20260505214732 | 65 | 269 | 2.0 | 4.0 | 0.00 | 0.00 | 0.00 | 43 | 1008.1 |
| 20260505213734 | 65 | 277 | 0.0 | 4.0 | 0.00 | 0.00 | 0.00 | 43 | 1008.1 |
| 20260505212731 | 65 | 75 | 1.0 | 6.0 | 0.00 | 0.00 | 0.00 | 43 | 1008.0 |
| 20260505211733 | 65 | 268 | 0.0 | 2.0 | 0.00 | 0.00 | 0.00 | 43 | 1008.1 |